Station Historical Data
Daily Summary for August 20, 2017 Units:  English    Metric   Both
« Previous Day
Next Day »
Daily Weekly Monthly Yearly Custom
  High: Low: Average:
Temperature: 92.9 °F 67.6 °F 78.9 °F
Dew Point: 72.3 °F 64.9 °F 67.8 °F
Humidity: 93% 42% 71%
Wind Speed: 1.0mph 0.0mph 0mph
Wind Gust: 3.0mph - -
Wind- - SW
Pressure: 30.12 in 30.01 in -
Precipitation: 0.00 in    
Historical Graphs
 
 
Tabular Data for August 20, 2017
Time Temperature Dew Point Pressure Wind Wind Speed Wind Gust Humidity Rainfall Rate (Hourly) solar Conditions
00:00 73.9 °F 68.0 °F 30.02 in Calm     82% 0.00 in WeatherDisplay:10.37 W/m2 CLR
00:05 73.7 °F 68.3 °F 30.02 in Calm     83% 0.00 in WeatherDisplay:10.37 W/m2 CLR
00:10 73.6 °F 68.1 °F 30.02 in Calm     83% 0.00 in WeatherDisplay:10.37 W/m2 CLR
00:15 73.4 °F 67.9 °F 30.02 in Calm     83% 0.00 in WeatherDisplay:10.37 W/m2 CLR
00:20 73.3 °F 67.8 °F 30.02 in Calm     83% 0.00 in WeatherDisplay:10.37 W/m2 CLR
00:25 73.1 °F 67.6 °F 30.02 in Calm     83% 0.00 in WeatherDisplay:10.37 W/m2 CLR
00:30 73.0 °F 67.9 °F 30.02 in Calm     84% 0.00 in WeatherDisplay:10.37 W/m2 CLR
00:40 72.7 °F 67.6 °F 30.02 in Calm     84% 0.00 in WeatherDisplay:10.37 W/m2 CLR
00:45 72.5 °F 67.8 °F 30.02 in Calm     85% 0.00 in WeatherDisplay:10.37 W/m2 CLR
00:50 72.4 °F 67.6 °F 30.02 in Calm     85% 0.00 in WeatherDisplay:10.37 W/m2 CLR
00:55 72.3 °F 67.5 °F 30.02 in Calm     85% 0.00 in WeatherDisplay:10.37 W/m2 CLR
01:00 72.1 °F 67.3 °F 30.02 in Calm     85% 0.00 in WeatherDisplay:10.37 W/m2 CLR
01:10 71.8 °F 67.4 °F 30.03 in Calm     86% 0.00 in WeatherDisplay:10.37 W/m2 CLR
01:15 71.8 °F 67.4 °F 30.02 in Calm     86% 0.00 in WeatherDisplay:10.37 W/m2 CLR
01:20 71.7 °F 67.3 °F 30.02 in Calm     86% 0.00 in WeatherDisplay:10.37 W/m2 CLR
01:25 71.5 °F 67.4 °F 30.02 in Calm     87% 0.00 in WeatherDisplay:10.37 W/m2 CLR
01:30 71.4 °F 67.3 °F 30.02 in Calm     87% 0.00 in WeatherDisplay:10.37 W/m2 CLR
01:40 71.3 °F 67.2 °F 30.02 in Calm     87% 0.00 in WeatherDisplay:10.37 W/m2 CLR
01:45 71.2 °F 67.1 °F 30.02 in Calm     87% 0.00 in WeatherDisplay:10.37 W/m2 CLR
01:50 71.1 °F 67.0 °F 30.02 in Calm     87% 0.00 in WeatherDisplay:10.37 W/m2 CLR
01:55 71.0 °F 67.3 °F 30.02 in Calm     88% 0.00 in WeatherDisplay:10.37 W/m2 CLR
02:00 71.0 °F 67.3 °F 30.02 in Calm     88% 0.00 in WeatherDisplay:10.37 W/m2 CLR
02:05 71.0 °F 67.3 °F 30.02 in Calm     88% 0.00 in WeatherDisplay:10.37 W/m2 CLR
02:10 70.9 °F 67.2 °F 30.02 in Calm     88% 0.00 in WeatherDisplay:10.37 W/m2 CLR
02:15 70.9 °F 67.2 °F 30.02 in Calm     88% 0.00 in WeatherDisplay:10.37 W/m2 CLR
02:20 70.9 °F 67.5 °F 30.01 in Calm     89% 0.00 in WeatherDisplay:10.37 W/m2 CLR
02:25 70.9 °F 67.5 °F 30.01 in Calm     89% 0.00 in WeatherDisplay:10.37 W/m2 CLR
02:30 70.9 °F 67.2 °F 30.01 in Calm     88% 0.00 in WeatherDisplay:10.37 W/m2 CLR
02:40 70.6 °F 66.9 °F 30.01 in Calm     88% 0.00 in WeatherDisplay:10.37 W/m2 CLR
02:45 70.5 °F 67.1 °F 30.01 in Calm     89% 0.00 in WeatherDisplay:10.37 W/m2 CLR
02:50 70.4 °F 67.0 °F 30.01 in Calm     89% 0.00 in WeatherDisplay:10.37 W/m2 CLR
02:55 70.3 °F 66.9 °F 30.02 in Calm     89% 0.00 in WeatherDisplay:10.37 W/m2 CLR
03:00 70.3 °F 66.9 °F 30.02 in Calm     89% 0.00 in WeatherDisplay:10.37 W/m2 CLR
03:05 70.2 °F 66.8 °F 30.02 in Calm     89% 0.00 in WeatherDisplay:10.37 W/m2 CLR
03:10 70.1 °F 66.7 °F 30.02 in Calm     89% 0.00 in WeatherDisplay:10.37 W/m2 CLR
03:15 70.0 °F 66.6 °F 30.02 in Calm     89% 0.00 in WeatherDisplay:10.37 W/m2 CLR
03:20 70.0 °F 66.9 °F 30.01 in Calm     90% 0.00 in WeatherDisplay:10.37 W/m2 CLR
03:25 69.9 °F 66.8 °F 30.01 in Calm     90% 0.00 in WeatherDisplay:10.37 W/m2 CLR
03:30 69.8 °F 66.7 °F 30.01 in Calm     90% 0.00 in WeatherDisplay:10.37 W/m2 CLR
03:35 69.7 °F 66.6 °F 30.01 in Calm     90% 0.00 in WeatherDisplay:10.37 W/m2 CLR
03:40 69.7 °F 66.6 °F 30.02 in Calm     90% 0.00 in WeatherDisplay:10.37 W/m2 CLR
03:45 69.8 °F 66.7 °F 30.01 in Calm     90% 0.00 in WeatherDisplay:10.37 W/m2 CLR
03:50 69.8 °F 67.1 °F 30.02 in Calm     91% 0.00 in WeatherDisplay:10.37 W/m2 CLR
03:55 69.9 °F 67.2 °F 30.02 in Calm     91% 0.00 in WeatherDisplay:10.37 W/m2 CLR
04:00 69.9 °F 67.2 °F 30.02 in Calm     91% 0.00 in WeatherDisplay:10.37 W/m2 CLR
04:05 69.8 °F 66.7 °F 30.02 in Calm     90% 0.00 in WeatherDisplay:10.37 W/m2 CLR
04:10 69.8 °F 67.1 °F 30.02 in Calm     91% 0.00 in WeatherDisplay:10.37 W/m2 CLR
04:15 69.8 °F 67.1 °F 30.02 in Calm     91% 0.00 in WeatherDisplay:10.37 W/m2 CLR
04:20 69.8 °F 67.1 °F 30.02 in Calm     91% 0.00 in WeatherDisplay:10.37 W/m2 CLR
04:25 69.8 °F 67.1 °F 30.02 in Calm     91% 0.00 in WeatherDisplay:10.37 W/m2 CLR
04:30 69.8 °F 67.1 °F 30.02 in Calm     91% 0.00 in WeatherDisplay:10.37 W/m2 CLR
04:35 69.7 °F 67.0 °F 30.02 in Calm     91% 0.00 in WeatherDisplay:10.37 W/m2 CLR
04:40 69.6 °F 66.9 °F 30.02 in Calm     91% 0.00 in WeatherDisplay:10.37 W/m2 CLR
04:45 69.5 °F 66.8 °F 30.02 in Calm     91% 0.00 in WeatherDisplay:10.37 W/m2 CLR
04:50 69.4 °F 66.7 °F 30.02 in Calm     91% 0.00 in WeatherDisplay:10.37 W/m2 CLR
04:55 69.4 °F 66.7 °F 30.02 in Calm     91% 0.00 in WeatherDisplay:10.37 W/m2 CLR
05:00 69.4 °F 66.7 °F 30.02 in Calm     91% 0.00 in WeatherDisplay:10.37 W/m2 CLR
05:05 69.2 °F 66.2 °F 30.02 in Calm     90% 0.00 in WeatherDisplay:10.37 W/m2 CLR
05:10 69.2 °F 66.5 °F 30.03 in Calm     91% 0.00 in WeatherDisplay:10.37 W/m2 CLR
05:15 69.1 °F 66.4 °F 30.03 in Calm     91% 0.00 in WeatherDisplay:10.37 W/m2 CLR
05:20 69.1 °F 66.4 °F 30.03 in Calm     91% 0.00 in WeatherDisplay:10.37 W/m2 CLR
05:25 69.0 °F 66.3 °F 30.03 in Calm     91% 0.00 in WeatherDisplay:10.37 W/m2 CLR
05:30 68.8 °F 65.7 °F 30.03 in Calm     90% 0.00 in WeatherDisplay:10.37 W/m2 CLR
05:35 68.7 °F 66.0 °F 30.03 in Calm     91% 0.00 in WeatherDisplay:10.37 W/m2 CLR
05:40 68.6 °F 65.9 °F 30.03 in Calm     91% 0.00 in WeatherDisplay:10.37 W/m2 CLR
05:45 68.6 °F 65.5 °F 30.03 in Calm     90% 0.00 in WeatherDisplay:10.37 W/m2 CLR
05:50 68.5 °F 65.8 °F 30.03 in Calm     91% 0.00 in WeatherDisplay:10.37 W/m2 CLR
05:55 68.5 °F 65.8 °F 30.03 in Calm     91% 0.00 in WeatherDisplay:10.37 W/m2 CLR
06:00 68.5 °F 65.8 °F 30.04 in Calm     91% 0.00 in WeatherDisplay:10.37 W/m2 CLR
06:05 68.4 °F 65.7 °F 30.04 in Calm     91% 0.00 in WeatherDisplay:10.37 W/m2 CLR
06:10 68.3 °F 65.6 °F 30.04 in Calm     91% 0.00 in WeatherDisplay:10.37 W/m2 CLR
06:15 68.3 °F 65.6 °F 30.04 in Calm     91% 0.00 in WeatherDisplay:10.37 W/m2 CLR
06:20 68.2 °F 65.5 °F 30.04 in Calm     91% 0.00 in WeatherDisplay:10.37 W/m2 CLR
06:25 68.2 °F 65.5 °F 30.05 in Calm     91% 0.00 in WeatherDisplay:10.37 W/m2 CLR
06:30 68.2 °F 65.5 °F 30.05 in Calm     91% 0.00 in WeatherDisplay:10.37 W/m2 CLR
06:35 68.1 °F 65.4 °F 30.05 in Calm     91% 0.00 in WeatherDisplay:10.37 W/m2 CLR
06:40 68.0 °F 65.3 °F 30.05 in Calm     91% 0.00 in WeatherDisplay:10.37 W/m2 CLR
06:45 68.0 °F 65.2 °F 30.05 in Calm     91% 0.00 in WeatherDisplay:10.37 W/m2 CLR
06:50 67.9 °F 65.2 °F 30.05 in Calm     91% 0.00 in WeatherDisplay:10.37 W/m2 CLR
06:55 67.9 °F 65.2 °F 30.06 in Calm     91% 0.00 in WeatherDisplay:10.37 W/m2 CLR
07:00 67.8 °F 65.1 °F 30.06 in Calm     91% 0.00 in WeatherDisplay:10.37 W/m2 CLR
07:05 67.7 °F 65.0 °F 30.06 in Calm     91% 0.00 in WeatherDisplay:10.37 W/m2 CLR
07:10 67.7 °F 65.0 °F 30.06 in Calm     91% 0.00 in WeatherDisplay:10.37 W/m2 CLR
07:15 67.7 °F 65.0 °F 30.06 in Calm     91% 0.00 in WeatherDisplay:10.37 W/m2 CLR
07:20 67.7 °F 65.0 °F 30.06 in Calm     91% 0.00 in WeatherDisplay:10.37 W/m2 FEW
07:25 67.7 °F 65.0 °F 30.06 in Calm     91% 0.00 in WeatherDisplay:10.37 W/m2 FEW
07:30 67.6 °F 64.9 °F 30.06 in Calm     91% 0.00 in WeatherDisplay:10.37 W/m2 FEW
07:35 67.7 °F 65.3 °F 30.06 in Calm     92% 0.00 in WeatherDisplay:10.37 W/m2 FEW
07:40 67.7 °F 65.3 °F 30.06 in Calm     92% 0.00 in WeatherDisplay:10.37 W/m2 FEW
07:45 67.8 °F 65.4 °F 30.07 in Calm     92% 0.00 in WeatherDisplay:10.37 W/m2 FEW
07:50 68.0 °F 65.6 °F 30.07 in Calm     92% 0.00 in WeatherDisplay:10.37 W/m2 FEW
07:55 68.3 °F 65.9 °F 30.07 in Calm     92% 0.00 in WeatherDisplay:10.37 W/m2 FEW
08:00 68.4 °F 66.0 °F 30.07 in Calm     92% 0.00 in WeatherDisplay:10.37 W/m2 FEW
08:05 68.6 °F 66.2 °F 30.07 in Calm     92% 0.00 in WeatherDisplay:10.37 W/m2 FEW
08:10 68.9 °F 66.5 °F 30.07 in Calm     92% 0.00 in WeatherDisplay:10.37 W/m2 FEW
08:15 69.4 °F 67.3 °F 30.08 in Calm     93% 0.00 in WeatherDisplay:10.37 W/m2 FEW
08:20 69.8 °F 67.7 °F 30.08 in Calm     93% 0.00 in WeatherDisplay:10.37 W/m2 FEW
08:25 70.2 °F 67.7 °F 30.08 in Calm     92% 0.00 in WeatherDisplay:10.37 W/m2 FEW
08:30 70.6 °F 68.2 °F 30.08 in Calm     92% 0.00 in WeatherDisplay:10.37 W/m2 FEW
08:35 71.1 °F 68.7 °F 30.08 in Calm     92% 0.00 in WeatherDisplay:10.37 W/m2 FEW
08:40 71.5 °F 68.8 °F 30.08 in Calm     91% 0.00 in WeatherDisplay:10.37 W/m2 FEW
08:45 72.0 °F 69.2 °F 30.08 in Calm     91% 0.00 in WeatherDisplay:10.37 W/m2 FEW
08:50 72.5 °F 69.4 °F 30.09 in Calm     90% 0.00 in WeatherDisplay:10.37 W/m2 FEW
08:55 72.9 °F 69.8 °F 30.09 in Calm     90% 0.00 in WeatherDisplay:10.37 W/m2 FEW
09:00 73.5 °F 70.0 °F 30.09 in Calm     89% 0.00 in WeatherDisplay:10.37 W/m2 FEW
09:05 74.1 °F 70.6 °F 30.09 in Calm     89% 0.00 in WeatherDisplay:10.37 W/m2 FEW
09:10 74.5 °F 70.4 °F 30.09 in Calm     87% 0.00 in WeatherDisplay:10.37 W/m2 FEW
09:15 74.9 °F 70.1 °F 30.09 in Calm     85% 0.00 in WeatherDisplay:10.37 W/m2 FEW
09:20 75.5 °F 70.6 °F 30.09 in Calm     85% 0.00 in WeatherDisplay:10.37 W/m2 CLR
09:25 76.2 °F 71.4 °F 30.09 in Calm     85% 0.00 in WeatherDisplay:10.37 W/m2 CLR
09:35 77.3 °F 71.7 °F 30.09 in Calm     83% 0.00 in WeatherDisplay:10.37 W/m2 CLR
09:40 77.8 °F 71.5 °F 30.09 in Calm     81% 0.00 in WeatherDisplay:10.37 W/m2 CLR
09:45 78.1 °F 70.7 °F 30.09 in Calm     78% 0.00 in WeatherDisplay:10.37 W/m2 CLR
09:50 78.6 °F 71.6 °F 30.09 in Calm     79% 0.00 in WeatherDisplay:10.37 W/m2 CLR
09:55 79.4 °F 71.5 °F 30.09 in Calm     77% 0.00 in WeatherDisplay:10.37 W/m2 CLR
10:00 80.0 °F 70.6 °F 30.09 in Calm     73% 0.00 in WeatherDisplay:10.37 W/m2 CLR
10:05 80.8 °F 70.5 °F 30.10 in Calm     71% 0.00 in WeatherDisplay:10.37 W/m2 CLR
10:10 81.1 °F 70.0 °F 30.10 in Calm   1.0 mph 69% 0.00 in WeatherDisplay:10.37 W/m2 CLR
10:15 81.3 °F 70.1 °F 30.10 in Calm   1.0 mph 69% 0.00 in WeatherDisplay:10.37 W/m2 CLR
10:20 81.7 °F 71.4 °F 30.10 in Calm     71% 0.00 in WeatherDisplay:10.37 W/m2 FEW
10:25 82.5 °F 72.1 °F 30.09 in Calm   1.0 mph 71% 0.00 in WeatherDisplay:10.37 W/m2 FEW
10:30 82.8 °F 71.2 °F 30.10 in Calm   1.0 mph 68% 0.00 in WeatherDisplay:10.37 W/m2 FEW
10:35 83.2 °F 72.0 °F 30.10 in Calm     69% 0.00 in WeatherDisplay:10.37 W/m2 FEW
10:40 83.6 °F 71.9 °F 30.10 in Calm     68% 0.00 in WeatherDisplay:10.37 W/m2 FEW
10:45 84.0 °F 72.3 °F 30.10 in Calm     68% 0.00 in WeatherDisplay:10.37 W/m2 FEW
10:50 84.1 °F 71.5 °F 30.10 in Calm   1.0 mph 66% 0.00 in WeatherDisplay:10.37 W/m2 FEW
10:55 84.1 °F 70.6 °F 30.10 in Calm     64% 0.00 in WeatherDisplay:10.37 W/m2 FEW
11:00 83.9 °F 68.1 °F 30.10 in SW 1.0 mph 2.0 mph 59% 0.00 in WeatherDisplay:10.37 W/m2 FEW
11:10 83.7 °F 68.8 °F 30.10 in Calm   1.0 mph 61% 0.00 in WeatherDisplay:10.37 W/m2 FEW
11:15 84.1 °F 68.7 °F 30.10 in Calm   1.0 mph 60% 0.00 in WeatherDisplay:10.37 W/m2 FEW
11:20 84.2 °F 69.3 °F 30.10 in Calm     61% 0.00 in WeatherDisplay:10.37 W/m2 FEW
11:25 84.4 °F 69.5 °F 30.10 in Calm   1.0 mph 61% 0.00 in WeatherDisplay:10.37 W/m2 FEW
11:30 84.9 °F 69.4 °F 30.10 in Calm   1.0 mph 60% 0.00 in WeatherDisplay:10.37 W/m2 FEW
11:35 85.2 °F 68.2 °F 30.10 in Calm   1.0 mph 57% 0.00 in WeatherDisplay:10.37 W/m2 FEW
11:40 85.3 °F 68.8 °F 30.10 in Calm   2.0 mph 58% 0.00 in WeatherDisplay:10.37 W/m2 FEW
11:45 85.6 °F 69.2 °F 30.10 in Calm   1.0 mph 58% 0.00 in WeatherDisplay:10.37 W/m2 FEW
11:50 85.8 °F 68.8 °F 30.10 in Calm   1.0 mph 57% 0.00 in WeatherDisplay:10.37 W/m2 FEW
11:55 85.6 °F 68.1 °F 30.10 in Calm   1.0 mph 56% 0.00 in WeatherDisplay:10.37 W/m2 FEW
12:00 85.6 °F 68.1 °F 30.10 in Calm   1.0 mph 56% 0.00 in WeatherDisplay:10.37 W/m2 FEW
12:05 86.0 °F 68.9 °F 30.10 in Calm   2.0 mph 57% 0.00 in WeatherDisplay:10.37 W/m2 FEW
12:10 86.2 °F 67.6 °F 30.10 in Calm   2.0 mph 54% 0.00 in WeatherDisplay:10.37 W/m2 FEW
12:15 86.5 °F 68.4 °F 30.10 in Calm   2.0 mph 55% 0.00 in WeatherDisplay:10.37 W/m2 FEW
12:20 87.1 °F 68.4 °F 30.10 in Calm   3.0 mph 54% 0.00 in WeatherDisplay:10.37 W/m2 FEW
12:25 87.6 °F 67.8 °F 30.10 in Calm   1.0 mph 52% 0.00 in WeatherDisplay:10.37 W/m2 FEW
12:30 88.3 °F 67.9 °F 30.10 in Calm   1.0 mph 51% 0.00 in WeatherDisplay:10.37 W/m2 FEW
12:35 88.8 °F 68.3 °F 30.10 in Calm   1.0 mph 51% 0.00 in WeatherDisplay:10.37 W/m2 FEW
12:40 89.5 °F 69.0 °F 30.10 in Calm   1.0 mph 51% 0.00 in WeatherDisplay:10.37 W/m2 FEW
12:45 90.5 °F 69.3 °F 30.10 in Calm     50% 0.00 in WeatherDisplay:10.37 W/m2 FEW
12:50 91.1 °F 68.1 °F 30.10 in Calm   2.0 mph 47% 0.00 in WeatherDisplay:10.37 W/m2 FEW
12:55 90.8 °F 67.2 °F 30.10 in Calm   2.0 mph 46% 0.00 in WeatherDisplay:10.37 W/m2 FEW
13:00 90.6 °F 67.6 °F 30.10 in Calm   1.0 mph 47% 0.00 in WeatherDisplay:10.37 W/m2 FEW
13:10 90.8 °F 65.9 °F 30.10 in Calm   2.0 mph 44% 0.00 in WeatherDisplay:10.37 W/m2 FEW
13:15 90.4 °F 66.2 °F 30.10 in Calm   1.0 mph 45% 0.00 in WeatherDisplay:10.37 W/m2 FEW
13:20 90.5 °F 66.3 °F 30.10 in East 1.0 mph 2.0 mph 45% 0.00 in WeatherDisplay:10.37 W/m2 SCT
13:25 90.6 °F 67.6 °F 30.10 in Calm     47% 0.00 in WeatherDisplay:10.37 W/m2 SCT
13:30 90.9 °F 66.6 °F 30.10 in Calm     45% 0.00 in WeatherDisplay:10.37 W/m2 SCT
13:35 91.3 °F 67.6 °F 30.10 in Calm     46% 0.00 in WeatherDisplay:10.37 W/m2 SCT
13:40 91.8 °F 66.1 °F 30.09 in Calm     43% 0.00 in WeatherDisplay:10.37 W/m2 SCT
13:45 91.9 °F 66.2 °F 30.09 in Calm     43% 0.00 in WeatherDisplay:10.37 W/m2 SCT
13:50 92.3 °F 66.6 °F 30.09 in Calm   1.0 mph 43% 0.00 in WeatherDisplay:10.37 W/m2 SCT
13:55 92.9 °F 66.4 °F 30.09 in Calm   1.0 mph 42% 0.00 in WeatherDisplay:10.37 W/m2 SCT
14:00 92.9 °F 67.7 °F 30.09 in Calm   1.0 mph 44% 0.00 in WeatherDisplay:10.37 W/m2 SCT
14:10 92.6 °F 68.8 °F 30.09 in Calm   1.0 mph 46% 0.00 in WeatherDisplay:10.37 W/m2 SCT
14:15 92.5 °F 68.0 °F 30.09 in Calm   1.0 mph 45% 0.00 in WeatherDisplay:10.37 W/m2 SCT
14:20 91.8 °F 68.1 °F 30.09 in Calm     46% 0.00 in WeatherDisplay:10.37 W/m2 SCT
14:25 91.3 °F 68.9 °F 30.09 in Calm   2.0 mph 48% 0.00 in WeatherDisplay:10.37 W/m2 SCT
14:30 90.7 °F 67.7 °F 30.09 in Calm   1.0 mph 47% 0.00 in WeatherDisplay:10.37 W/m2 SCT
14:35 90.6 °F 68.2 °F 30.09 in Calm   2.0 mph 48% 0.00 in WeatherDisplay:10.37 W/m2 SCT
14:40 90.2 °F 66.0 °F 30.08 in NNW 1.0 mph 3.0 mph 45% 0.00 in WeatherDisplay:10.37 W/m2 SCT
14:45 90.1 °F 67.8 °F 30.08 in Calm   1.0 mph 48% 0.00 in WeatherDisplay:10.37 W/m2 SCT
14:50 90.3 °F 68.5 °F 30.08 in Calm   1.0 mph 49% 0.00 in WeatherDisplay:10.37 W/m2 SCT
14:55 90.2 °F 68.5 °F 30.08 in West 1.0 mph 2.0 mph 49% 0.00 in WeatherDisplay:10.37 W/m2 SCT
15:00 90.2 °F 67.9 °F 30.08 in Calm     48% 0.00 in WeatherDisplay:10.37 W/m2 SCT
15:10 89.9 °F 67.6 °F 30.07 in Calm   1.0 mph 48% 0.00 in WeatherDisplay:10.37 W/m2 SCT
15:15 90.0 °F 67.1 °F 30.07 in Calm   1.0 mph 47% 0.00 in WeatherDisplay:10.37 W/m2 SCT
15:20 90.1 °F 69.0 °F 30.07 in Calm     50% 0.00 in WeatherDisplay:10.37 W/m2 SCT
15:25 89.6 °F 68.5 °F 30.07 in Calm     50% 0.00 in WeatherDisplay:10.37 W/m2 SCT
15:30 89.1 °F 67.4 °F 30.07 in Calm     49% 0.00 in WeatherDisplay:10.37 W/m2 SCT
15:35 88.9 °F 67.3 °F 30.06 in Calm   2.0 mph 49% 0.00 in WeatherDisplay:10.37 W/m2 SCT
15:40 89.1 °F 67.5 °F 30.06 in Calm   1.0 mph 49% 0.00 in WeatherDisplay:10.37 W/m2 SCT
15:45 89.3 °F 67.0 °F 30.06 in Calm   2.0 mph 48% 0.00 in WeatherDisplay:10.37 W/m2 SCT
15:50 89.4 °F 66.5 °F 30.06 in Calm   1.0 mph 47% 0.00 in WeatherDisplay:10.37 W/m2 SCT
15:55 89.5 °F 67.8 °F 30.06 in Calm   1.0 mph 49% 0.00 in WeatherDisplay:10.37 W/m2 SCT
16:00 89.6 °F 66.1 °F 30.06 in Calm     46% 0.00 in WeatherDisplay:10.37 W/m2 SCT
16:05 89.5 °F 65.4 °F 30.05 in Calm     45% 0.00 in WeatherDisplay:10.37 W/m2 SCT
16:10 89.5 °F 66.6 °F 30.05 in Calm     47% 0.00 in WeatherDisplay:10.37 W/m2 SCT
16:15 89.6 °F 67.9 °F 30.05 in Calm     49% 0.00 in WeatherDisplay:10.37 W/m2 SCT
16:20 89.8 °F 68.1 °F 30.05 in Calm     49% 0.00 in WeatherDisplay:10.37 W/m2 BKN
16:25 89.9 °F 66.3 °F 30.05 in Calm     46% 0.00 in WeatherDisplay:10.37 W/m2 BKN
16:30 89.9 °F 65.7 °F 30.05 in Calm     45% 0.00 in WeatherDisplay:10.37 W/m2 BKN
16:40 89.8 °F 68.1 °F 30.05 in Calm     49% 0.00 in WeatherDisplay:10.37 W/m2 BKN
16:45 89.8 °F 65.6 °F 30.05 in Calm     45% 0.00 in WeatherDisplay:10.37 W/m2 BKN
16:50 89.7 °F 67.4 °F 30.05 in Calm     48% 0.00 in WeatherDisplay:10.37 W/m2 BKN
16:55 90.0 °F 67.7 °F 30.05 in Calm     48% 0.00 in WeatherDisplay:10.37 W/m2 BKN
17:00 90.1 °F 67.2 °F 30.05 in Calm   1.0 mph 47% 0.00 in WeatherDisplay:10.37 W/m2 BKN
17:05 90.1 °F 67.8 °F 30.05 in Calm   1.0 mph 48% 0.00 in WeatherDisplay:10.37 W/m2 BKN
17:10 90.0 °F 68.2 °F 30.05 in Calm     49% 0.00 in WeatherDisplay:10.37 W/m2 BKN
17:15 89.8 °F 66.3 °F 30.05 in Calm     46% 0.00 in WeatherDisplay:10.37 W/m2 BKN
17:20 89.5 °F 67.8 °F 30.05 in Calm     49% 0.00 in WeatherDisplay:10.37 W/m2 BKN
17:25 89.2 °F 68.1 °F 30.05 in Calm     50% 0.00 in WeatherDisplay:10.37 W/m2 BKN
17:30 88.9 °F 68.4 °F 30.04 in Calm     51% 0.00 in WeatherDisplay:10.37 W/m2 BKN
17:40 87.3 °F 68.6 °F 30.04 in Calm     54% 0.00 in WeatherDisplay:10.37 W/m2 BKN
17:45 87.2 °F 68.0 °F 30.04 in Calm     53% 0.00 in WeatherDisplay:10.37 W/m2 BKN
17:50 87.0 °F 68.3 °F 30.04 in Calm     54% 0.00 in WeatherDisplay:10.37 W/m2 BKN
17:55 87.1 °F 67.9 °F 30.04 in Calm     53% 0.00 in WeatherDisplay:10.37 W/m2 BKN
18:00 87.1 °F 67.4 °F 30.04 in Calm     52% 0.00 in WeatherDisplay:10.37 W/m2 BKN
18:10 86.7 °F 67.5 °F 30.05 in Calm     53% 0.00 in WeatherDisplay:10.37 W/m2 BKN
18:15 86.3 °F 67.7 °F 30.05 in Calm     54% 0.00 in WeatherDisplay:10.37 W/m2 BKN
18:20 86.1 °F 66.4 °F 30.05 in Calm     52% 0.00 in WeatherDisplay:10.37 W/m2 SCT
18:25 86.0 °F 66.3 °F 30.05 in Calm     52% 0.00 in WeatherDisplay:10.37 W/m2 SCT
18:30 85.7 °F 66.6 °F 30.05 in Calm     53% 0.00 in WeatherDisplay:10.37 W/m2 SCT
18:35 85.6 °F 66.5 °F 30.05 in Calm     53% 0.00 in WeatherDisplay:10.37 W/m2 SCT
18:40 85.4 °F 66.3 °F 30.05 in Calm     53% 0.00 in WeatherDisplay:10.37 W/m2 SCT
18:45 85.3 °F 65.7 °F 30.05 in Calm     52% 0.00 in WeatherDisplay:10.37 W/m2 SCT
18:50 85.3 °F 66.2 °F 30.05 in Calm     53% 0.00 in WeatherDisplay:10.37 W/m2 SCT
18:55 85.0 °F 66.0 °F 30.05 in Calm     53% 0.00 in WeatherDisplay:10.37 W/m2 SCT
19:00 84.8 °F 66.3 °F 30.05 in Calm     54% 0.00 in WeatherDisplay:10.37 W/m2 SCT
19:05 84.7 °F 66.7 °F 30.05 in Calm     55% 0.00 in WeatherDisplay:10.37 W/m2 SCT
19:10 84.6 °F 67.2 °F 30.06 in Calm     56% 0.00 in WeatherDisplay:10.37 W/m2 SCT
19:15 84.5 °F 67.1 °F 30.06 in Calm     56% 0.00 in WeatherDisplay:10.37 W/m2 SCT
19:20 84.2 °F 67.3 °F 30.06 in Calm     57% 0.00 in WeatherDisplay:10.37 W/m2 SCT
19:25 84.0 °F 67.1 °F 30.06 in Calm     57% 0.00 in WeatherDisplay:10.37 W/m2 SCT
19:30 83.8 °F 67.4 °F 30.06 in Calm     58% 0.00 in WeatherDisplay:10.37 W/m2 SCT
19:35 83.7 °F 67.4 °F 30.06 in Calm     58% 0.00 in WeatherDisplay:10.37 W/m2 SCT
19:40 83.6 °F 67.3 °F 30.06 in Calm     58% 0.00 in WeatherDisplay:10.37 W/m2 SCT
19:45 83.3 °F 67.0 °F 30.07 in Calm     58% 0.00 in WeatherDisplay:10.37 W/m2 SCT
19:50 83.1 °F 66.8 °F 30.07 in Calm     58% 0.00 in WeatherDisplay:10.37 W/m2 SCT
19:55 82.9 °F 66.6 °F 30.07 in Calm     58% 0.00 in WeatherDisplay:10.37 W/m2 SCT
20:00 82.7 °F 66.9 °F 30.08 in Calm     59% 0.00 in WeatherDisplay:10.37 W/m2 SCT
20:05 82.5 °F 67.2 °F 30.08 in Calm     60% 0.00 in WeatherDisplay:10.37 W/m2 SCT
20:10 82.4 °F 67.6 °F 30.08 in Calm     61% 0.00 in WeatherDisplay:10.37 W/m2 SCT
20:15 82.2 °F 67.9 °F 30.08 in Calm     62% 0.00 in WeatherDisplay:10.37 W/m2 SCT
20:20 81.9 °F 67.6 °F 30.08 in Calm     62% 0.00 in WeatherDisplay:10.37 W/m2 SCT
20:25 81.6 °F 68.2 °F 30.08 in Calm     64% 0.00 in WeatherDisplay:10.37 W/m2 SCT
20:30 81.3 °F 68.4 °F 30.09 in Calm     65% 0.00 in WeatherDisplay:10.37 W/m2 SCT
20:35 80.9 °F 68.5 °F 30.09 in Calm     66% 0.00 in WeatherDisplay:10.37 W/m2 SCT
20:40 80.7 °F 68.3 °F 30.09 in Calm     66% 0.00 in WeatherDisplay:10.37 W/m2 SCT
20:45 80.6 °F 68.6 °F 30.09 in Calm     67% 0.00 in WeatherDisplay:10.37 W/m2 SCT
20:50 80.5 °F 69.0 °F 30.09 in Calm     68% 0.00 in WeatherDisplay:10.37 W/m2 SCT
20:55 80.3 °F 69.2 °F 30.09 in Calm     69% 0.00 in WeatherDisplay:10.37 W/m2 SCT
21:00 80.1 °F 69.0 °F 30.10 in Calm     69% 0.00 in WeatherDisplay:10.37 W/m2 SCT
21:10 79.6 °F 69.4 °F 30.10 in Calm     71% 0.00 in WeatherDisplay:10.37 W/m2 SCT
21:15 79.4 °F 69.5 °F 30.10 in Calm     72% 0.00 in WeatherDisplay:10.37 W/m2 SCT
21:20 79.1 °F 69.3 °F 30.10 in Calm     72% 0.00 in WeatherDisplay:10.37 W/m2 SCT
21:25 78.8 °F 69.5 °F 30.10 in Calm     73% 0.00 in WeatherDisplay:10.37 W/m2 SCT
21:30 78.8 °F 69.4 °F 30.10 in Calm     73% 0.00 in WeatherDisplay:10.37 W/m2 SCT
21:40 78.6 °F 69.2 °F 30.10 in Calm     73% 0.00 in WeatherDisplay:10.37 W/m2 SCT
21:45 78.5 °F 69.5 °F 30.11 in Calm     74% 0.00 in WeatherDisplay:10.37 W/m2 SCT
21:50 78.4 °F 69.4 °F 30.11 in Calm     74% 0.00 in WeatherDisplay:10.37 W/m2 SCT
21:55 78.3 °F 68.9 °F 30.11 in Calm     73% 0.00 in WeatherDisplay:10.37 W/m2 SCT
22:00 78.2 °F 69.2 °F 30.11 in Calm     74% 0.00 in WeatherDisplay:10.37 W/m2 SCT
22:05 78.1 °F 69.1 °F 30.11 in Calm     74% 0.00 in WeatherDisplay:10.37 W/m2 SCT
22:10 78.0 °F 69.4 °F 30.11 in Calm     75% 0.00 in WeatherDisplay:10.37 W/m2 SCT
22:15 77.9 °F 68.9 °F 30.11 in Calm     74% 0.00 in WeatherDisplay:10.37 W/m2 SCT
22:20 77.7 °F 69.1 °F 30.11 in Calm     75% 0.00 in WeatherDisplay:10.37 W/m2 FEW
22:25 77.4 °F 69.2 °F 30.11 in Calm     76% 0.00 in WeatherDisplay:10.37 W/m2 FEW
22:30 77.2 °F 69.4 °F 30.11 in Calm     77% 0.00 in WeatherDisplay:10.37 W/m2 FEW
22:35 77.0 °F 69.3 °F 30.12 in Calm     77% 0.00 in WeatherDisplay:10.37 W/m2 FEW
22:40 77.0 °F 69.6 °F 30.12 in Calm     78% 0.00 in WeatherDisplay:10.37 W/m2 FEW
22:45 76.8 °F 69.4 °F 30.12 in Calm     78% 0.00 in WeatherDisplay:10.37 W/m2 FEW
22:50 76.6 °F 69.2 °F 30.12 in Calm     78% 0.00 in WeatherDisplay:10.37 W/m2 FEW
22:55 76.5 °F 69.5 °F 30.12 in Calm     79% 0.00 in WeatherDisplay:10.37 W/m2 FEW
23:00 76.3 °F 69.3 °F 30.12 in Calm     79% 0.00 in WeatherDisplay:10.37 W/m2 FEW
23:10 76.1 °F 69.5 °F 30.12 in Calm     80% 0.00 in WeatherDisplay:10.37 W/m2 FEW
23:15 75.9 °F 69.3 °F 30.12 in Calm     80% 0.00 in WeatherDisplay:10.37 W/m2 FEW
23:20 75.8 °F 69.2 °F 30.12 in Calm     80% 0.00 in WeatherDisplay:10.37 W/m2 CLR
23:25 75.8 °F 69.2 °F 30.12 in Calm     80% 0.00 in WeatherDisplay:10.37 W/m2 CLR
23:30 75.8 °F 69.6 °F 30.12 in Calm     81% 0.00 in WeatherDisplay:10.37 W/m2 CLR
23:35 75.7 °F 69.5 °F 30.12 in Calm     81% 0.00 in WeatherDisplay:10.37 W/m2 CLR
23:40 75.6 °F 69.4 °F 30.12 in Calm     81% 0.00 in WeatherDisplay:10.37 W/m2 CLR
23:45 75.5 °F 69.3 °F 30.12 in Calm     81% 0.00 in WeatherDisplay:10.37 W/m2 CLR
23:50 75.5 °F 69.2 °F 30.12 in Calm     81% 0.00 in WeatherDisplay:10.37 W/m2 CLR
23:55 75.4 °F 69.5 °F 30.12 in Calm     82% 0.00 in WeatherDisplay:10.37 W/m2 CLR
Piedmont Bend
Compliments of Weather Underground - 4 mb